Flag for Russia Weather past 2 weeks in Kazan, Russia

Now
21 °F

Light snow. Overcast.


Feels Like: 5 °F
Forecast: 22 / 37 °F
Wind: 22 mph from South

Location: Kazan'

Current Time: Feb 1, 2015 at 3:46:25 AM

Latest Report: Feb 1, 2015 at 3:00 AM


Visibility: 3 mi

Pressure: 30.09 "Hg

Humidity: 93%

Dew point: 19 °F

Location of KazanLocation

Historic Weather in Kazan — Graph

°F

Kazan temperature yesterday

Maximum temperature yesterday: 19 °F (at 9:30 PM)
Minimum temperature yesterday: 9 °F (at 12:30 AM)
Average temperature yesterday: 14 °F

Past Weeks' High & Low Weather Summary

 TemperatureHumidityPressure
High32 °F (Jan 19, 8:30 AM)100% (Jan 17, 2:00 AM)30.80 "Hg (Jan 17, 2:00 AM)
Low-9 °F (Jan 23, 6:30 PM)62% (Jan 20, 2:30 PM)29.92 "Hg (Jan 18, 3:00 PM)
Average9 °F84%30.31 "Hg
* Reported Jan 17 2:00 AM — Feb 1 2:30 AM, Kazan, Weather by CustomWeather, © 2014

Note: Actual official high and low records may vary slightly from our data, if they occured in-between our weather recording intervals... More about our weather records

Advertising

Kazan weather history for previous 24 hours

 ConditionsComfort  
Time TempWeatherWind HumidityBarometerVisibility
2:30 AM
Feb 1
21 °FLight snow. Overcast.22 mph93%30.09 "Hg3 mi
2:00 AM21 °FLight snow. Overcast.22 mph86%30.12 "Hg3 mi
1:30 AM21 °FLight snow. Overcast.22 mph86%30.09 "Hg3 mi
1:00 AM21 °FLight snow. Overcast.22 mph93%30.09 "Hg3 mi
12:30 AM21 °FLight snow. Overcast.22 mph93%30.09 "Hg3 mi
12:00 AM19 °FLight snow. Overcast.24 mph93%30.09 "HgN/A
11:30 PM
Jan 31
19 °FLight snow. Overcast.24 mph93%30.09 "HgN/A
11:00 PM19 °FLight snow. Overcast.22 mph93%30.09 "HgN/A
10:30 PM19 °FLight snow. Overcast.22 mph93%30.12 "HgN/A
10:00 PM19 °FLight snow. Overcast.22 mph93%30.12 "HgN/A
9:30 PM19 °FLight snow. Overcast.22 mph86%30.12 "HgN/A
9:00 PM18 °FLight snow. Overcast.20 mph93%30.12 "HgN/A
8:30 PM18 °FLight snow. Overcast.22 mph93%30.12 "Hg3 mi
8:00 PM18 °FLight snow. Overcast.22 mph93%30.12 "Hg3 mi
7:30 PM18 °FOvercast.20 mph93%30.12 "HgN/A
7:00 PM18 °FOvercast.20 mph93%30.12 "HgN/A
6:30 PM18 °FOvercast.20 mph93%30.12 "HgN/A
6:00 PM18 °FOvercast.24 mph93%30.12 "Hg3 mi
5:30 PM18 °FOvercast.22 mph86%30.12 "Hg3 mi
5:00 PM18 °FOvercast.20 mph86%30.12 "HgN/A
4:30 PM18 °FOvercast.20 mph86%30.12 "HgN/A
4:00 PM16 °FOvercast.20 mph93%30.12 "HgN/A
3:30 PM16 °FOvercast.20 mph93%30.12 "HgN/A
3:00 PM18 °FOvercast.17 mph86%30.15 "HgN/A
2:30 PM16 °FOvercast.17 mph93%30.12 "HgN/A
2:00 PM16 °FOvercast.17 mph86%30.12 "HgN/A
1:30 PM16 °FOvercast.15 mph86%30.12 "HgN/A
1:00 PM14 °FLow clouds.17 mph92%30.12 "HgN/A
12:30 PM14 °FOvercast.17 mph85%30.12 "HgN/A
12:00 PM14 °FOvercast.15 mph85%30.12 "HgN/A
11:30 AM14 °FOvercast.20 mph85%30.12 "HgN/A
11:00 AM14 °FOvercast.17 mph85%30.15 "HgN/A
10:30 AM12 °FOvercast.17 mph85%30.15 "HgN/A
10:00 AM12 °FOvercast.15 mph85%30.15 "HgN/A
9:30 AM10 °FPartly sunny.15 mph85%30.15 "HgN/A
9:00 AM10 °FPartly sunny.15 mph85%30.15 "HgN/A
8:30 AM10 °FPassing clouds.15 mph85%30.15 "HgN/A
8:00 AM10 °FPartly cloudy.15 mph85%30.12 "HgN/A
7:30 AM10 °FPartly cloudy.15 mph85%30.12 "HgN/A
7:00 AM10 °FPassing clouds.15 mph85%30.12 "HgN/A
6:00 AM12 °FOvercast.13 mph85%30.12 "HgN/A
5:30 AM12 °FOvercast.13 mph85%30.12 "HgN/A
5:00 AM12 °FOvercast.15 mph85%30.12 "HgN/A
4:30 AM10 °FOvercast.13 mph92%30.12 "HgN/A
4:00 AM10 °FOvercast.15 mph92%30.12 "HgN/A
3:30 AM10 °FOvercast.13 mph85%30.12 "HgN/A
3:00 AM10 °FOvercast.15 mph85%30.12 "HgN/A
Weather by CustomWeather, © 2014

See weather overviewHow to use our weather pages